Location: Jangalapalle
(16.8036°N, 80.6370°E)
Time: 11:12:48
(UTC+00:00)

Cosmos 489 Rocket - Pass Details

Date: 05 August 2024
Orbit: 951 x 983 km, 74.0° (Epoch: 08 September)

Event Time Altitude Azimuth Distance (km) Brightness Sun altitude
Rises 13:36:11 0° 189° (S) 3,611 7.4 -7.2°
Reaches altitude 10° 13:38:42 10° 187° (S) 2,667 6.7 -7.8°
Maximum altitude 13:44:51 76° 103° (ESE) 980 4.4 -9.2°
Drops below altitude 10° 13:51:02 10° 18° (NNE) 2,681 6.9 -10.6°
Sets 13:53:33 0° 16° (NNE) 3,631 7.6 -11.1°
